Погода Хмельницкий

Погода Хмельницкий : погода сейчас, прогноз погоды и архив. Всё, что Вы хотите узнать о погоде Хмельницкий!

Хотите узнать прогноз погоды Хмельницкий? Тогда Вам сюда: Погода Хмельницкий

Поиск расширенной информации на нашем сайте:

Другие новости

Новости СМИ2

Главная страница сайта

Новости сайта

03.07.2017

Напоминаем, что на нашем специализированном сайте Метеоцентр.Азия вы можете получить высокодетализированные автоматические прогнозы погоды по пунктам России, СНГ и мира в авиационном формате (включающие направление и скорость ветра, видимость, явления погоды, количество и форму облачности, нижнюю и верхнюю границу облачности).


Погода Хмельницкий - сегодня

Время (UTC), дата Ветер
(°,м/с) 
Видим.   Явления Облачность Т
(°С)
Тd
(°С)
f(%) Тe
(°С)
Pmin
(гПа)
dP
(гПа)
Po
(мм)
O2
(г/м3)
Тmin Tmax R s Состояние
почвы
15 17.10.17 320 (СЗ) 10 км    ясно 
+17.8 +10.8 64 +22  1023.2  -0.5  737  277           
18 17.10.17 тихо ()   10 км    ясно 
+14 +11 82 +17  1023.9  0.1  737  280          мокрая 
21 17.10.17 210 (ЮЗ) 10 км    ясно 
+11.4 +10.2 92 +14  1023.5  -0.7  736  283           
00 18.10.17 210 (ЮЗ) 4000 м  дымка  ясно 
+10.3 +9.7 96 +12  1023.1  -0.6  736  284           
03 18.10.17 160 (Ю) 4000 м  дымка  ясно 
+8.9 +8.5 97 +9  1022.3  -1  735  285           
06 18.10.17 190 (Ю) 2000 м  дымка  ясно 
+10.1 +9.5 96 +12  1021.3  -0.7  735  284  +8         
09 18.10.17 210 (ЮЗ) 10 км    ясно 
+16.1 +10.9 71 +19  1019.6  -0.8  734  277           
12 18.10.17 230 (ЮЗ) 10 км    3/0 верхняя 
[Ci fib]
+21.4 +7.2 40 +21  1017.2  -1.6  733  273           
15 18.10.17 290 (З) 10 км    3/0 верхняя 
[Ci fib]
+19.2 +9.7 54 +22  1016.7  -0.8  732  274           
18 18.10.17 220 (ЮЗ) 10 км    ясно 
+14.9 +11.6 81 +20  1017.2  -0.1  732  278    +21.7       
21 18.10.17 220 (ЮЗ) 10 км    ясно 
+14 +11.8 87 +19  1016.9  -0.4  732  278           
00 19.10.17 120 (ЮВ) 10 км    3/0 верхняя 
[Ci fib]
+11.1 +9.5 90 +12  1016.6  -0.7  731  281           
03 19.10.17 130 (ЮВ) 10 км    5/0 верхняя 
[Ci fib]
+11.1 +9.7 91 +13  1016.1  -0.5  731  281           
06 19.10.17 тихо ()   10 км    8/0 средняя, верхняя 
[Ac trans|Ci fib]
+9.9 +8.9 93 +10  1016.5  0.2  731  283  +8.9  -1      затоплена
водой 
09 19.10.17 тихо ()   10 км    8/3 600 м средняя, верхняя 
[Sc|Ac trans|Ci fib]
+17.7 +12.4 71 +23  1015.2  -0.1  731  274           
12 19.10.17 220 (ЮЗ) 10 км    8/3 1000 м верхняя 
[Sc|Ci fib]
+20.1 +10.5 54 +22  1014.3  -0.6  731  272           
15 19.10.17 340 (С) 10 км    8/0 верхняя 
[Ci fib]
+18 +10.2 60 +21  1014.7  0.1  731  274           
18 19.10.17 тихо ()   10 км    ясно 
+14.7 +10.6 76 +17  1015.5  0.4  731  278    +21.9       
21 19.10.17 тихо ()   10 км    ясно 
+12 +10.3 89 +14  1016.3  0.4  731  280           
00 20.10.17 тихо ()   10 км    5/0 верхняя 
[Ci fib]
+10.7 +9.7 94 +12  1016.9  0.3  732  282           
03 20.10.17 060 (СВ) 1000 м  дымка  4/0 верхняя 
[Ci fib]
+7.5 +7.1 97 +7  1017.9  0.5  732  286           
06 20.10.17 060 (СВ) 0200 м  туман  ?/?  
+7.4 +7.4 100 +8  1018.5  0.6  732  286  +6.1  -0.7      влажная 
09 20.10.17 050 (СВ) 0200 м  туман  ?/?  
+10.7 +10.7 100 +13  1019  733  282           
12 20.10.17 060 (СВ) 0500 м  туман  ?/?  
+11.4 +11.4 100 +15  1018.6  -0.3  733  281           
15 20.10.17 080 (В) 2000 м  дымка{туман}  10/10 100 м 
[St]
+11.2 +11 99 +14  1018.9  0.2  733  282           
Время (UTC), дата Ветер
(°,м/с) 
Видим.   Явления Облачность Т
(°С)
Тd
(°С)
f(%) Тe
(°С)
Pmin
(гПа)
dP
(гПа)
Po
(мм)
O2
(г/м3)
Тmin Tmax R s Состояние
почвы

Для получения пояснительной информации подведите курсор к названию столбца.

ПОГОДА Хмельницкий - архив

Всё, что Вы хотите узнать о погоде Хмельницкий - удобно и подробно!

Выберите нужную дату (начиная с 1 января 2015* года) и нажмите кнопку "Найти".
Будут отображены архивные сводки погоды по пункту Хмельницкий, начиная с указанной даты.


Отображать данные в формате CSV (для использования в таблицах Excel)


Внимание! Наш архив погоды предназначен исключительно для личного некоммерческого использования в познавательных целях. Если Вам необходимы официальные справки о состоянии погоды (для производственных, юридических, коммерческих и т.п. целей), обращайтесь в органы Росгидромета.

*Примечание: данная дата относится к архиву по метеостанциям СССР (Россия, СНГ, Балтия).
Архив по метеостанциям Зарубежной Европы и Азии (кроме Китая) хранится 10 дней, по другим регионам земного шара (Китай, Африка, Америка, Австралия, Океания) - 1 день.

Хмельницкий - район местоположения метеостанции


Название, широта, долгота, высота метеостанции:
Хмельницкий 49.4°ш. 27°д. 350 м над ур. моря [Украина]

Дополнительная информация

В oтличие oт бoльшинства пoгoдных сайтoв мы публикуем пoдрoбную метеoинфoрмацию в детальнoм прoфессиoнальнoм фoрмате.

Характеристики температуры и влажнoсти вoздуха измеряются на высoте 2 м в тени вдали oт зданий и деревьев.
Скoрoсть ветра измеряется на высoте 10 м (на урoвне рoста челoвека скoрoсть ветра ниже в 1.5-2 раза). Если метеoстанция нахoдится в гoрoде или в лесу, тo скoрoсть ветра занижена на 2-4 м/с пo сравнению с oткрытым местoм. Скoрoсть ветра над акватoриями крупных рек и oзёр, а также на вершинах хoлмoв на 2-5 м/с выше, чем в oбычных услoвиях.
Атмoсфернoе давление в разных тoчках местнoсти мoжет значительнo oтличаться oт давления на метеoстанции, в зависимoсти oт услoвий рельефа (при пoдъёме на 10 м давление пoнижается примернo на 1 мм рт.ст.).